User: anonymous   Login
Location: Unspecified
(0.0000°N, 0.0000°E)
Time: 23:02:06
(UTC+00:00)
Language:

UNISAT 2 - Orbit

View from above orbital plane
View from above orbital plane
View from above satellite
View from above satellite

Ground track
Ground track

The orbit data is extracted from the following two-line orbital elements,

1 27608U 02058D   18344.03261519 -.00000034  00000-0  15514-4 0  9993
2 27608  64.5538 192.9322 0066519 281.2796  78.0837 14.77959526860569
Epoch (UTC): 10 December 2018 00:46:57
Eccentricity: 0.0066519
inclination: 64.5538°
perigee height: 589 km
apogee height: 682 km
right ascension of ascending node: 192.9322°
argument of perigee: 281.2796°
revolutions per day: 14.77959526
mean anomaly at epoch: 78.0837°
orbit number at epoch: 86056

The dashed part of the orbit path shows where the satellite is in the earth's shadow,  

DLR